W1TG-2 Weather Reports


time (UTC)temp
F
wind
direction
speed
knots
gust
knots
rain 1hr
in
rain 24hr
in
rain mn
in
humidity
%
barometer
mb
20260507085403 48 191 0.0 1.7 0.01 0.36 0.02 93 1006.1
20260507084803 49 0 0.0 0.0 0.01 0.36 0.02 92 1006.3
20260507084204 49 191 0.0 0.9 0.01 0.36 0.02 92 1006.1
20260507083604 49 191 0.0 3.5 0.01 0.36 0.02 92 1005.8
20260507083004 49 190 0.0 1.7 0.02 0.36 0.02 92 1006.1
20260507082403 49 191 0.0 1.7 0.02 0.36 0.02 91 1005.9
20260507081804 49 191 0.0 1.7 0.02 0.36 0.02 91 1005.8
20260507081203 50 191 0.0 2.6 0.02 0.36 0.02 90 1005.7
20260507080603 50 190 0.0 4.3 0.01 0.35 0.01 89 1005.8
20260507080004 50 191 0.0 2.6 0.01 0.35 0.01 89 1005.9
20260507075404 50 191 0.0 2.6 0.01 0.35 0.01 89 1006.0
20260507074803 50 191 0.0 1.7 0.01 0.35 0.01 89 1006.0
20260507074203 50 191 0.0 4.3 0.01 0.35 0.01 89 1005.5
20260507073604 51 191 0.0 4.3 0.01 0.35 0.01 88 1005.6
20260507073004 51 191 0.0 4.3 0.00 0.34 0.00 89 1005.2
20260507072403 51 191 0.0 2.6 0.00 0.34 0.00 89 1005.4
20260507071803 51 191 0.0 2.6 0.00 0.34 0.00 90 1005.5
20260507071204 51 191 0.0 2.6 0.00 0.34 0.00 90 1005.6
20260507070603 51 191 0.0 4.3 0.00 0.34 0.00 91 1005.4
20260507070006 52 191 0.0 5.2 0.00 0.34 0.00 91 1005.4
20260507065404 52 191 0.0 5.2 0.00 0.34 0.00 91 1005.3
20260507064804 52 191 0.0 1.7 0.00 0.34 0.00 91 1005.3
20260507064203 52 191 0.0 1.7 0.00 0.34 0.00 91 1005.1
20260507063603 52 191 0.0 0.9 0.00 0.34 0.00 91 1005.0
20260507063004 52 191 0.0 0.9 0.00 0.34 0.00 90 1005.0
20260507062403 52 190 0.0 4.3 0.00 0.34 0.00 90 1005.2
20260507061803 52 191 0.0 2.6 0.00 0.34 0.00 89 1005.1
20260507061204 52 191 0.0 3.5 0.00 0.34 0.00 90 1005.2
20260507060604 52 191 0.0 3.5 0.00 0.34 0.00 89 1005.4
20260507060003 52 191 0.0 5.2 0.00 0.34 0.00 89 1005.2
20260507055403 52 191 0.0 5.2 0.00 0.34 0.00 89 1005.4
20260507054804 52 189 0.0 5.2 0.00 0.34 0.00 90 1005.4
20260507054203 52 189 0.0 5.2 0.00 0.34 0.00 90 1005.4
20260507053603 52 188 0.0 4.3 0.00 0.34 0.00 90 1005.4
20260507053004 52 188 0.0 5.2 0.00 0.34 0.00 91 1005.5
20260507052404 52 188 0.0 3.5 0.00 0.34 0.00 91 1005.5
20260507051803 52 188 0.0 3.5 0.00 0.34 0.00 91 1005.4
20260507051203 53 186 0.9 5.2 0.00 0.34 0.00 91 1005.5
20260507050604 53 185 0.0 4.3 0.00 0.34 0.00 92 1005.4
20260507050003 53 184 0.0 2.6 0.00 0.34 0.00 93 1005.4
20260507045403 53 185 0.0 2.6 0.00 0.34 0.00 93 1005.1
20260507044803 54 185 0.0 4.3 0.00 0.34 0.00 93 1005.1
20260507044204 54 184 0.0 4.3 0.00 0.34 0.00 94 1005.2
20260507043603 54 185 0.0 4.3 0.00 0.34 0.00 94 1005.4
20260507043003 54 184 0.0 5.2 0.00 0.34 0.00 94 1005.4
20260507042403 55 185 0.0 2.6 0.00 0.34 0.00 95 1005.4
20260507041804 55 184 0.0 4.3 0.00 0.34 0.00 95 1005.5
20260507041203 56 184 0.0 5.2 0.00 0.34 0.00 96 1005.3
20260507040603 56 184 0.0 2.6 0.00 0.34 0.00 96 1005.1
20260507040004 57 184 0.0 0.9 0.00 0.34 0.00 97 1005.0
20260507035404 57 184 0.0 2.6 0.00 0.34 0.34 97 1004.9
20260507034803 57 184 0.0 1.7 0.00 0.34 0.34 97 1004.7
20260507034203 57 184 0.0 2.6 0.00 0.34 0.34 97 1004.7
20260507033604 58 185 0.0 4.3 0.00 0.34 0.34 97 1004.7
20260507033004 59 185 0.0 4.3 0.00 0.34 0.34 96 1004.5
20260507032403 60 184 0.0 4.3 0.00 0.34 0.34 97 1004.4
20260507031803 60 184 0.0 1.7 0.00 0.34 0.34 97 1004.3
20260507031204 60 184 0.0 0.9 0.00 0.34 0.34 97 1004.3
20260507030603 60 184 0.9 6.1 0.00 0.34 0.34 97 1004.2
20260507030003 60 184 0.0 6.1 0.00 0.34 0.34 97 1004.2
20260507025404 59 184 0.0 3.5 0.00 0.34 0.34 97 1004.2
20260507024804 59 185 0.0 4.3 0.00 0.34 0.34 97 1004.3
20260507024203 59 184 0.9 4.3 0.00 0.34 0.34 97 1004.3
20260507023603 59 185 0.9 7.0 0.00 0.34 0.34 97 1004.1
20260507023004 59 184 0.0 7.0 0.00 0.34 0.34 97 1004.3
20260507022404 59 184 0.0 2.6 0.00 0.34 0.34 97 1004.3
20260507021803 59 184 0.0 5.2 0.00 0.34 0.34 97 1004.1
20260507021203 59 184 0.9 5.2 0.00 0.34 0.34 97 1004.2
20260507020604 59 184 0.9 3.5 0.00 0.34 0.34 98 1004.3
20260507020004 59 185 0.9 3.5 0.00 0.34 0.34 98 1004.5
20260507015403 59 184 0.0 5.2 0.00 0.34 0.34 98 1004.5
20260507014803 59 184 0.0 5.2 0.00 0.34 0.34 98 1004.5
20260507014204 59 184 0.9 6.1 0.00 0.34 0.34 98 1004.5
20260507013603 59 184 0.9 6.1 0.00 0.34 0.34 98 1004.6
20260507013003 59 184 0.9 6.1 0.00 0.34 0.34 98 1004.5
20260507012404 59 184 0.9 6.1 0.00 0.34 0.34 98 1004.6
20260507011804 59 184 0.9 5.2 0.00 0.34 0.34 98 1004.5
20260507011203 59 184 0.0 5.2 0.00 0.34 0.34 98 1004.7
20260507010603 59 184 0.9 7.0 0.00 0.34 0.34 98 1004.5
20260507010004 59 184 0.9 7.0 0.00 0.34 0.34 98 1004.7
20260507005403 59 184 0.9 5.2 0.00 0.34 0.34 98 1004.5
20260507004803 59 184 0.9 7.0 0.00 0.34 0.34 98 1004.5
20260507004203 59 184 0.0 7.0 0.01 0.34 0.34 98 1004.6
20260507003604 59 184 0.0 0.9 0.02 0.34 0.34 98 1004.6
20260507003004 59 184 0.0 3.5 0.05 0.34 0.34 98 1004.6
20260507002403 59 184 0.9 4.3 0.05 0.34 0.34 97 1004.5
20260507001804 59 184 0.0 4.3 0.06 0.34 0.34 97 1004.5
20260507001203 59 184 0.0 4.3 0.07 0.34 0.34 97 1004.5
20260507000603 60 185 1.7 7.0 0.07 0.34 0.34 97 1004.4
20260507000003 60 186 1.7 7.0 0.09 0.34 0.34 97 1004.3
20260506235404 60 188 1.7 10.4 0.10 0.34 0.34 97 1004.2
20260506234803 60 187 1.7 10.4 0.11 0.34 0.34 97 1004.2
20260506234203 60 187 1.7 7.8 0.11 0.33 0.33 97 1004.3
20260506233603 60 186 1.7 10.4 0.11 0.32 0.32 97 1004.3
20260506233004 60 185 1.7 10.4 0.08 0.29 0.29 97 1004.3
20260506232403 60 184 1.7 7.0 0.10 0.29 0.29 97 1004.5
20260506231803 60 184 1.7 7.8 0.10 0.28 0.28 97 1004.5
20260506231204 60 184 1.7 9.6 0.10 0.27 0.27 97 1004.6
20260506230604 60 184 2.6 9.6 0.10 0.27 0.27 97 1004.5
20260506230003 60 185 1.7 9.6 0.08 0.25 0.25 97 1004.6
20260506225403 60 186 1.7 8.7 0.07 0.24 0.24 97 1004.7
20260506224804 60 187 0.9 6.1 0.06 0.23 0.23 97 1004.7
20260506224204 60 187 0.9 4.3 0.06 0.22 0.22 96 1004.7
20260506223603 60 186 1.7 7.0 0.05 0.21 0.21 96 1004.8
20260506223003 60 185 2.6 7.0 0.05 0.21 0.21 96 1004.9
20260506222404 60 183 1.7 7.0 0.03 0.19 0.19 97 1004.9
20260506221803 60 182 1.7 8.7 0.03 0.18 0.18 97 1005.0
20260506221203 60 181 1.7 8.7 0.02 0.17 0.17 97 1005.0
20260506220604 60 181 0.9 5.2 0.03 0.17 0.17 97 1005.1
20260506220004 60 181 0.9 5.2 0.04 0.17 0.17 96 1005.0
20260506215403 60 181 0.9 5.2 0.04 0.17 0.17 96 1005.1
20260506214803 60 181 0.9 6.1 0.04 0.16 0.16 96 1005.2
20260506214204 60 181 0.9 6.1 0.04 0.16 0.16 96 1005.2
20260506213603 60 181 0.0 3.5 0.05 0.16 0.16 96 1005.3
20260506213003 60 181 0.9 3.5 0.06 0.16 0.16 96 1005.5
20260506212404 60 181 0.9 6.1 0.08 0.16 0.16 95 1005.5
20260506211804 60 181 0.9 6.1 0.09 0.15 0.15 95 1005.5
20260506211203 60 181 1.7 5.2 0.11 0.15 0.15 95 1005.5
20260506210603 60 183 1.7 7.0 0.10 0.14 0.14 94 1005.7
20260506210004 60 183 1.7 7.0 0.09 0.13 0.13 94 1005.7
20260506205404 60 183 1.7 7.0 0.10 0.13 0.13 94 1005.6
20260506204803 60 179 2.6 9.6 0.09 0.12 0.12 94 1005.4
20260506204203 60 177 3.5 9.6 0.10 0.12 0.12 93 1005.5
20260506203604 60 191 1.7 9.6 0.09 0.11 0.11 92 1005.6
20260506203004 60 193 2.6 9.6 0.09 0.10 0.10 92 1005.6
20260506202404 60 189 3.5 9.6 0.06 0.07 0.07 90 1005.6
20260506201803 61 187 2.6 7.8 0.06 0.06 0.06 90 1005.6
20260506201204 61 186 1.7 9.6 0.04 0.04 0.04 89 1005.6
20260506200603 62 186 1.7 6.1 0.04 0.04 0.04 89 1005.3
20260506200003 62 187 1.7 6.1 0.03 0.03 0.03 88 1005.4
20260506195404 62 187 1.7 7.0 0.03 0.03 0.03 88 1005.4
20260506194804 62 187 1.7 7.0 0.03 0.03 0.03 88 1005.4
20260506194203 62 187 1.7 6.1 0.02 0.02 0.02 87 1005.4
20260506193603 62 187 1.7 6.1 0.02 7.62 0.02 86 1005.5
20260506193004 63 187 0.9 6.1 0.01 7.61 0.01 85 1005.7
20260506192403 63 186 1.7 8.7 0.01 7.61 0.01 85 1005.7
20260506191803 63 186 2.6 8.7 0.00 7.60 0.00 84 1005.6
20260506191203 63 186 2.6 9.6 0.00 7.60 0.00 81 1005.6
20260506190604 63 185 2.6 9.6 0.00 7.60 0.00 80 1005.6
20260506190004 64 185 2.6 8.7 0.00 7.60 0.00 80 1005.5
20260506185403 64 183 3.5 9.6 0.00 7.60 0.00 80 1005.5
20260506184804 64 175 4.3 11.3 0.00 7.60 0.00 79 1005.4
20260506184203 64 181 4.3 11.3 0.00 7.60 0.00 78 1005.3
20260506183604 64 188 4.3 10.4 0.00 7.60 0.00 76 1005.4
20260506183003 65 185 5.2 10.4 0.00 7.60 0.00 74 1005.4
20260506182404 66 176 5.2 11.3 0.00 7.60 0.00 74 1005.4
20260506181803 67 178 6.1 13.0 0.00 7.60 0.00 72 1005.5
20260506181203 66 179 6.1 13.0 0.00 7.60 0.00 72 1005.7
20260506180604 66 184 5.2 13.9 0.00 7.60 0.00 72 1005.6
20260506180005 66 184 6.1 14.8 0.00 7.60 0.00 72 1005.8
20260506175403 66 177 5.2 14.8 0.00 7.60 0.00 72 1005.8
20260506174803 67 165 5.2 16.5 0.00 7.60 0.00 71 1005.8
20260506174204 67 178 6.1 16.5 0.00 7.60 0.00 71 1005.8
20260506173603 67 189 6.1 13.9 0.00 7.60 0.00 71 1005.8
20260506173003 67 183 5.2 13.0 0.00 7.60 0.00 71 1005.9
20260506172404 67 181 5.2 13.9 0.00 7.60 0.00 72 1005.8
20260506171803 67 183 5.2 11.3 0.00 7.60 0.00 72 1005.8
20260506171203 66 191 5.2 11.3 0.00 7.60 0.00 73 1006.0
20260506170604 66 187 5.2 11.3 0.00 7.60 0.00 73 1006.0
20260506170004 66 181 4.3 10.4 0.00 7.60 0.00 73 1005.9
20260506165403 66 179 4.3 14.8 0.00 7.60 0.00 72 1006.1
20260506164804 66 170 3.5 9.6 0.00 7.60 0.00 72 1006.3
20260506164204 66 165 3.5 9.6 0.00 7.60 0.00 72 1006.2
20260506163603 66 163 3.5 9.6 0.00 7.60 0.00 72 1006.2
20260506163003 67 155 3.5 9.6 0.00 7.60 0.00 71 1006.4
20260506162404 67 153 3.5 10.4 0.00 7.60 0.00 71 1006.5
20260506161804 67 169 2.6 10.4 0.00 7.60 0.00 71 1006.7
20260506161203 67 181 1.7 7.8 0.00 7.60 0.00 70 1006.9
20260506160603 68 186 1.7 6.1 0.00 7.60 0.00 68 1007.1
20260506160004 70 188 1.7 7.8 0.00 7.60 0.00 68 1007.1
20260506155403 70 188 2.6 7.8 0.00 7.60 0.00 69 1007.3
20260506154803 70 188 2.6 7.0 0.00 7.60 0.00 69 1007.4
20260506154203 70 186 3.5 9.6 0.00 7.60 0.00 68 1007.4
20260506153604 70 185 3.5 9.6 0.00 7.60 0.00 69 1007.4
20260506153004 70 186 3.5 9.6 0.00 7.60 0.00 68 1007.7
20260506152403 70 181 3.5 9.6 0.00 7.60 0.00 68 1007.5
20260506151803 70 187 4.3 10.4 0.00 7.60 0.00 68 1007.5
20260506151204 70 196 4.3 10.4 0.00 7.60 0.00 68 1007.8
20260506150603 70 201 3.5 11.3 0.00 7.60 0.00 69 1007.8
20260506150003 70 200 4.3 11.3 0.00 7.60 0.00 68 1007.7
20260506145404 70 193 3.5 9.6 0.00 7.60 0.00 69 1007.6
20260506144804 70 186 3.5 12.2 0.00 7.60 0.00 69 1007.7
20260506144203 70 187 3.5 12.2 0.00 7.60 0.00 69 1007.6
20260506143603 70 183 3.5 12.2 0.00 7.60 0.00 71 1007.6
20260506143004 69 190 4.3 12.2 0.00 7.60 0.00 70 1007.5
20260506142403 69 193 4.3 10.4 0.00 7.60 0.00 70 1007.4
20260506141803 69 185 4.3 13.0 0.00 7.60 0.00 72 1007.5
20260506141203 68 191 4.3 13.0 0.00 7.60 0.00 73 1007.6
20260506140604 68 195 4.3 9.6 0.00 7.60 0.00 73 1007.7
20260506140004 67 193 4.3 10.4 0.00 7.60 0.00 73 1007.7
20260506135403 67 196 2.6 12.2 0.00 7.60 0.00 74 1007.7
20260506134804 67 197 3.5 8.7 0.00 7.60 0.00 74 1008.0
20260506134204 67 195 3.5 10.4 0.00 7.60 0.00 74 1008.2
20260506133603 67 199 2.6 10.4 0.00 7.60 0.00 75 1008.1
20260506133003 66 198 5.2 13.9 0.00 7.60 0.00 75 1008.1
20260506132404 66 193 4.3 13.9 0.00 7.60 0.00 75 1008.1
20260506131804 66 190 3.5 13.9 0.00 7.60 0.00 75 1008.0
20260506131203 66 192 2.6 8.7 0.00 7.60 0.00 75 1008.0
20260506130603 66 192 1.7 8.7 0.00 7.60 0.00 75 1008.2
20260506130004 66 192 2.6 9.6 0.00 7.60 0.00 76 1008.1
20260506125404 66 191 3.5 9.6 0.00 7.60 0.00 76 1007.9
20260506124803 66 190 3.5 9.6 0.00 7.60 0.00 76 1008.0
20260506124204 65 191 3.5 9.6 0.00 7.60 0.00 76 1008.1
20260506123604 65 192 4.3 10.4 0.00 7.60 0.00 76 1008.4
20260506123003 65 191 4.3 9.6 0.00 7.60 0.00 77 1008.4
20260506122403 65 190 4.3 10.4 0.00 7.60 0.00 77 1008.2
20260506121804 64 192 3.5 12.2 0.00 7.60 0.00 78 1008.2
20260506121203 64 190 2.6 8.7 0.00 7.60 0.00 79 1008.3
20260506120603 64 189 2.6 6.1 0.00 7.60 0.00 79 1008.4
20260506120003 64 191 2.6 8.7 0.00 7.60 0.00 79 1008.4
20260506115404 64 193 2.6 8.7 0.00 7.60 0.00 79 1008.5
20260506114804 64 192 2.6 8.7 0.00 7.60 0.00 79 1008.5
20260506114203 63 193 2.6 8.7 0.00 7.60 0.00 79 1008.7
20260506113604 63 193 2.6 8.7 0.00 7.60 0.00 79 1008.6
20260506113004 63 193 2.6 8.7 0.00 7.60 0.00 79 1008.5
20260506112403 63 193 1.7 8.7 0.00 7.60 0.00 79 1008.6
20260506111803 63 193 1.7 8.7 0.00 7.60 0.00 79 1008.5
20260506111204 63 192 1.7 7.8 0.00 7.60 0.00 80 1008.6
20260506110603 62 192 2.6 8.7 0.00 7.60 0.00 80 1008.7
20260506110003 62 192 2.6 8.7 0.00 7.60 0.00 80 1008.7
20260506105403 62 191 1.7 7.8 0.00 7.60 0.00 80 1008.7
20260506104804 62 192 1.7 7.8 0.00 7.60 0.00 80 1008.6
20260506104203 62 192 1.7 7.8 0.00 7.60 0.00 79 1008.7
20260506103603 62 192 1.7 8.7 0.00 7.60 0.00 79 1008.7
20260506103003 62 192 0.9 8.7 0.00 7.60 0.00 79 1008.7
20260506102404 62 192 0.9 4.3 0.00 7.60 0.00 79 1008.7
20260506101803 62 193 1.7 7.0 0.00 7.60 0.00 79 1008.7
20260506101203 62 193 1.7 7.8 0.00 7.60 0.00 78 1008.7
20260506100604 62 193 1.7 6.1 0.00 7.60 0.00 79 1008.6
20260506100004 62 193 0.9 5.2 0.00 7.60 0.00 78 1008.6
20260506095403 62 193 1.7 5.2 0.00 7.60 0.00 78 1008.5
20260506094804 62 193 1.7 8.7 0.00 7.60 0.00 78 1008.6
20260506094204 62 193 0.9 8.7 0.00 7.60 0.00 78 1008.7
20260506093603 62 194 0.9 4.3 0.00 7.60 0.00 78 1008.7
20260506093003 62 194 0.9 4.3 0.00 7.60 0.00 78 1008.6
20260506092404 62 195 1.7 7.8 0.00 7.60 0.00 78 1008.6
20260506091804 62 195 1.7 7.8 0.00 7.60 0.00 77 1008.5
20260506091203 63 192 2.6 8.7 0.00 7.60 0.00 77 1008.5
20260506090603 63 193 1.7 8.7 0.00 7.60 0.00 76 1008.4
20260506090004 63 186 1.7 9.6 0.00 7.60 0.00 76 1008.4